Theta_e
345 356 364 365 366 367 365 364 363 363 361 361 362 362 363 363 363 363 363 362 361 359 356 354 351 349 347 344 342 346 350 352 353 353 353 353 353 353 353 354 355 346 354
348 356 363 364 366 367 366 364 363 362 361 361 362 362 362 362 363 363 362 361 360 356 353 350 347 344 342 340 338 341 341 345 349 351 352 353 353 352 352 352 351 347 351
347 356 358 364 365 366 365 364 363 361 361 361 362 362 362 363 363 362 361 361 358 355 351 347 344 342 340 339 337 337 336 338 340 345 351 348 345 352 350 350 351 348 346
349 356 355 363 365 365 365 365 363 362 361 362 362 362 362 363 362 362 361 360 357 353 350 345 343 341 340 338 337 336 335 335 341 344 334 339 341 351 350 349 349 348 345
351 353 357 362 364 365 365 365 363 362 362 362 362 362 362 363 362 361 360 360 356 352 347 344 344 343 340 339 339 339 338 341 344 340 332 339 341 348 351 349 349 350 348
351 349 358 361 363 364 364 364 364 363 363 362 362 362 362 363 361 360 360 359 357 353 347 347 346 345 342 341 342 341 342 343 346 338 340 339 343 352 352 351 351 353 348
346 350 356 359 362 363 364 364 364 364 363 363 363 362 363 362 361 360 359 358 356 353 350 349 348 347 346 346 343 343 344 344 336 334 341 341 344 351 352 351 348 348 348
345 352 357 359 360 361 362 362 362 362 362 362 362 362 362 361 360 359 358 357 356 354 352 351 349 348 348 347 345 345 345 344 336 336 339 344 348 352 352 352 351 349 346
345 355 356 354 358 360 361 360 360 360 360 361 361 361 361 360 359 358 357 357 356 354 353 353 351 350 349 347 346 346 345 344 340 336 339 341 351 352 352 351 352 350 349
341 357 357 352 351 354 357 360 359 359 359 359 359 359 359 359 357 357 355 356 355 355 354 353 352 351 349 348 347 347 346 344 340 335 334 341 350 351 349 351 353 352 350
338 355 355 347 350 351 351 356 358 359 359 359 358 358 356 354 354 353 353 353 355 355 354 353 352 351 350 349 348 347 345 339 336 335 337 350 351 349 347 349 351 353 351
338 342 352 346 349 350 346 356 354 354 354 353 353 355 353 351 351 349 352 353 355 355 354 354 352 351 349 339 338 346 339 336 334 334 337 350 349 348 346 348 351 352 353
339 341 348 350 352 349 346 356 352 351 351 351 352 353 354 350 350 351 352 349 352 353 347 349 348 345 340 338 335 337 337 336 334 333 343 350 350 349 347 348 351 352 353
332 341 345 354 355 353 348 352 353 347 349 350 351 356 355 352 355 353 350 349 350 351 348 348 344 343 342 341 340 339 339 339 336 337 345 350 350 350 348 348 350 353 353
335 338 345 351 356 361 363 362 360 347 348 349 352 353 353 356 352 359 353 355 352 351 350 349 346 348 345 344 343 342 340 340 340 339 338 351 349 349 349 348 349 350 353
338 334 341 353 355 358 360 367 363 362 360 354 351 353 356 355 361 355 357 352 350 350 348 349 348 347 345 342 344 345 343 343 343 341 338 342 348 348 349 349 349 351 353
334 335 338 354 355 353 356 363 360 358 353 355 353 360 355 359 360 359 354 351 350 350 351 347 346 347 346 346 345 345 346 345 344 343 342 340 344 347 348 349 349 350 352
333 336 336 334 351 351 355 356 356 350 352 353 351 354 360 357 357 357 353 351 350 351 349 345 343 341 343 343 343 346 347 346 345 346 343 344 345 344 345 348 347 348 350
331 333 336 338 346 351 354 352 353 355 353 351 351 352 355 353 356 353 352 349 354 348 345 346 343 343 343 345 346 348 349 348 349 345 343 346 348 345 343 346 347 347 348
331 332 336 340 341 349 351 351 352 350 349 352 350 351 351 352 350 354 350 353 352 346 342 345 343 342 342 347 345 344 350 349 349 346 346 348 346 348 347 347 345 345 348
330 332 337 338 336 340 336 335 338 341 349 349 352 353 352 350 348 351 349 346 353 346 343 346 342 343 346 350 346 344 345 350 346 347 348 347 346 347 348 348 346 345 346
328 330 333 333 335 337 331 335 341 336 339 341 348 352 352 352 349 351 347 346 347 344 345 345 345 341 345 349 344 342 335 340 345 346 345 344 345 349 346 346 345 345 344
325 327 328 331 328 332 336 329 329 331 332 334 333 335 349 354 347 346 346 346 346 342 340 344 347 345 341 347 349 342 335 331 339 344 343 342 345 344 342 342 345 345 345
322 324 327 330 330 325 336 331 330 326 325 328 330 333 339 352 352 348 344 347 344 345 342 342 347 345 348 344 347 347 346 345 335 333 343 343 343 343 342 343 342 339 343
321 323 326 328 330 333 331 330 331 331 331 329 330 331 335 343 347 352 351 347 347 345 344 347 343 347 350 346 345 346 345 343 345 337 330 335 339 341 339 343 340 343 342
319 320 325 328 331 333 332 330 326 332 331 329 327 332 332 332 337 337 351 349 348 348 349 349 348 353 350 348 347 345 345 339 337 337 334 332 332 335 340 341 340 338 340
Wind_Speed
14 16 16 17 19 17 14 15 15 14 14 14 12 12 12 13 14 14 13 12 11 11 11 9 8 7 7 7 7 7 7 6 7 6 7 8 8 8 8 9 12 10 7
19 17 13 16 18 17 14 14 14 14 14 14 13 12 12 12 13 13 12 11 10 11 9 9 8 6 6 6 6 5 4 4 3 4 6 7 8 8 7 8 11 7 7
18 14 15 14 17 17 14 12 13 14 14 14 13 13 12 12 12 12 11 10 10 9 7 7 6 6 5 5 5 4 3 1 4 5 6 5 7 9 6 6 7 7 6
18 14 13 12 16 18 15 10 12 14 14 14 14 13 12 11 11 11 10 9 9 8 7 6 6 4 4 4 4 2 1 3 7 7 5 9 8 10 7 5 4 5 5
17 15 12 14 14 20 18 12 9 12 12 12 13 12 12 12 11 11 9 9 7 6 6 4 4 4 3 3 2 1 2 6 9 9 8 2 5 8 8 6 4 5 4
20 17 17 15 15 19 20 17 11 11 12 12 11 11 10 10 10 9 9 8 7 6 4 3 3 3 2 1 1 1 4 8 10 10 10 6 7 10 8 6 5 6 4
12 18 18 16 11 13 19 17 14 11 11 11 11 11 10 10 9 9 9 9 8 6 5 5 4 3 3 2 2 3 6 9 8 11 8 6 10 10 9 6 5 5 3
9 19 18 19 12 11 14 17 14 11 10 10 10 11 11 10 9 9 8 8 8 8 6 5 5 5 4 4 4 4 5 10 11 10 7 6 12 12 10 7 4 4 3
5 19 16 15 13 9 10 16 17 14 11 9 9 9 10 10 9 9 8 8 7 6 7 6 7 7 7 6 6 6 6 10 9 9 11 3 11 11 9 7 6 4 3
6 20 16 13 14 11 9 10 15 16 15 11 9 9 8 9 9 8 8 8 8 7 7 8 8 8 8 7 7 7 8 10 9 10 9 4 16 12 11 8 7 7 5
5 19 16 15 13 12 12 11 11 15 15 14 11 10 8 6 8 10 10 10 11 9 9 8 8 7 7 7 9 11 11 5 8 7 7 14 13 12 11 8 8 8 7
11 13 17 15 13 12 11 12 10 10 8 8 9 10 7 7 6 10 12 14 14 12 9 8 7 7 7 5 5 14 5 8 8 9 4 15 13 13 11 9 8 11 10
7 7 16 13 14 12 9 9 7 6 7 7 9 9 8 6 6 5 3 6 6 9 5 8 7 6 8 6 6 6 8 9 7 7 6 14 13 13 11 10 8 11 11
10 8 7 11 10 9 6 9 10 8 8 7 9 9 6 6 5 5 4 8 7 6 8 6 6 9 9 8 7 7 6 5 3 3 5 13 11 11 11 10 9 11 12
5 12 2 8 7 5 5 3 2 9 8 9 9 10 8 5 5 3 4 2 5 5 9 7 7 5 7 8 8 7 6 6 6 3 0 12 11 12 12 12 12 13 13
6 7 8 4 6 4 3 2 2 4 3 7 7 10 11 7 4 5 4 4 5 3 3 6 6 6 6 5 5 6 7 5 4 5 4 5 14 12 12 14 14 15 15
8 6 5 2 5 6 4 1 2 4 3 3 3 6 12 7 6 5 4 5 5 4 5 2 4 2 2 3 6 5 5 6 6 6 5 4 5 13 15 15 16 16 15
6 10 2 8 4 5 3 1 3 3 3 4 3 3 8 10 7 5 5 5 5 4 4 4 3 3 3 5 5 5 5 6 7 7 6 5 5 5 12 15 16 16 14
8 7 4 4 12 7 6 6 7 2 4 1 5 4 5 7 9 6 5 5 5 4 3 3 3 4 5 5 5 4 6 5 6 5 6 6 6 5 4 10 15 14 14
6 4 7 4 7 9 6 7 6 6 5 5 6 5 6 3 7 7 6 4 5 4 5 4 5 3 7 4 6 4 5 5 5 5 4 5 6 7 6 6 6 8 16
6 4 4 6 3 4 7 5 2 3 3 3 4 7 6 5 6 6 6 6 4 4 5 5 3 5 6 4 3 5 5 6 7 5 5 5 6 7 7 6 6 6 6
6 5 1 3 6 3 4 3 2 1 2 3 1 3 8 8 7 6 8 7 7 6 6 4 5 5 8 6 4 4 3 4 5 7 4 4 5 4 6 6 6 6 4
8 4 4 1 3 2 3 2 3 1 1 3 2 3 5 5 9 10 9 9 7 9 8 7 6 8 7 5 9 5 3 4 1 3 5 4 6 3 2 4 7 6 3
5 7 3 2 3 3 3 3 6 4 3 2 4 4 6 8 8 11 13 12 12 7 8 7 6 9 9 10 4 8 5 1 1 0 2 5 4 3 3 3 3 4 5
5 2 6 4 2 1 4 2 2 3 3 3 4 6 5 6 6 8 11 13 11 8 10 8 10 9 6 5 9 4 5 5 4 3 4 3 3 4 5 5 3 5 5
7 10 6 4 4 4 5 3 6 5 4 3 3 4 3 4 9 13 14 11 11 10 10 8 8 7 9 5 9 14 4 4 4 4 5 5 7 3 4 5 5 5 5
Wind_Direction
129 142 141 137 132 134 145 146 143 136 131 129 129 124 122 118 115 115 115 112 113 114 115 118 113 105 98 90 77 72 76 82 88 95 97 102 93 76 59 37 358 87 91
130 146 143 138 137 138 146 151 143 140 136 137 135 133 130 125 122 123 122 124 124 123 126 124 121 121 108 101 96 85 86 89 114 146 149 138 123 96 73 55 52 79 82
129 144 153 147 142 139 144 149 146 142 140 142 140 138 136 132 131 129 130 130 130 128 132 129 127 131 130 120 113 113 106 116 250 231 214 197 139 122 106 84 78 77 77
135 144 158 156 147 138 137 146 150 147 147 148 146 143 140 136 137 133 135 136 137 140 141 142 139 139 136 119 116 113 138 248 266 269 249 233 138 135 131 114 108 99 90
139 150 153 158 158 141 139 141 153 150 149 149 147 145 143 141 143 140 142 138 141 148 150 154 149 152 149 134 125 152 259 268 270 274 256 11 97 137 136 133 164 132 82
148 155 146 163 163 151 144 144 148 151 151 147 144 144 142 143 143 145 146 142 147 153 163 167 176 163 173 178 179 265 283 281 292 283 264 95 101 142 134 132 114 113 133
169 154 152 155 164 158 146 143 142 143 141 141 144 144 145 147 151 151 152 149 155 166 174 187 192 194 215 222 249 272 288 292 294 285 283 159 118 147 136 147 144 138 134
173 138 148 150 154 157 147 138 133 128 130 136 142 146 148 149 156 159 163 163 173 169 178 203 198 203 211 227 249 265 282 292 294 288 302 109 141 154 147 160 176 176 160
203 129 139 158 153 144 148 140 134 128 126 131 134 143 149 155 164 166 174 180 187 181 180 198 205 209 212 217 240 257 277 290 295 290 294 140 148 153 152 172 189 201 195
234 126 135 158 165 172 158 142 140 137 137 135 139 147 151 158 170 173 186 196 200 198 199 203 209 213 220 220 230 246 264 279 276 279 282 167 157 162 165 185 213 208 203
247 132 138 159 166 181 172 156 143 143 142 144 151 157 156 201 187 194 204 210 199 208 213 212 220 221 230 235 235 233 239 249 258 252 263 141 149 157 169 185 222 224 211
320 153 139 153 164 184 184 151 176 175 175 177 178 172 198 210 210 202 201 198 196 204 213 223 226 233 238 254 226 226 222 236 249 263 246 157 161 166 175 186 219 225 218
309 289 136 150 156 182 208 148 171 184 185 188 192 181 186 212 228 204 205 174 184 202 219 208 214 221 232 232 252 186 213 227 233 246 147 162 166 172 174 187 213 222 217
356 316 101 142 151 177 197 158 169 189 183 182 188 188 191 199 213 223 195 180 191 187 202 217 199 218 205 218 240 274 244 255 258 299 142 164 176 177 179 190 209 221 222
57 359 13 102 86 44 8 14 325 182 177 183 179 189 190 202 202 214 230 237 180 205 185 204 209 206 204 213 222 227 237 256 285 300 228 175 186 193 193 199 208 224 226
46 31 337 111 130 133 210 295 346 307 153 175 183 182 193 190 200 205 175 220 256 258 227 198 198 205 196 199 233 230 227 236 259 259 252 196 197 198 206 205 211 224 231
137 116 44 24 149 166 223 272 264 311 309 311 189 171 181 189 184 197 201 200 224 228 245 234 260 246 231 239 216 231 241 222 224 240 241 249 200 209 217 212 212 220 228
149 154 138 105 229 140 202 33 262 250 300 304 274 223 164 183 198 204 204 223 202 224 216 207 223 264 236 222 221 214 212 204 227 215 210 214 228 214 223 217 218 224 228
132 130 186 226 154 215 182 216 226 148 227 266 291 271 194 181 189 210 218 228 225 211 217 205 201 209 247 236 236 224 221 198 216 228 214 212 219 237 181 206 214 226 231
121 139 154 212 151 149 146 178 205 183 200 218 216 247 256 204 199 182 227 248 235 213 219 211 202 226 245 245 237 243 232 197 199 217 220 223 225 218 216 191 188 213 227
97 43 223 150 187 178 197 168 161 159 186 219 198 216 254 212 226 201 203 229 252 232 239 229 180 234 263 249 255 272 258 221 211 209 210 212 217 232 196 176 182 196 232
153 154 47 187 140 251 223 139 131 245 215 185 77 204 232 196 196 193 210 206 202 225 247 231 242 227 232 230 235 233 288 280 207 205 207 234 248 202 196 198 200 215 227
156 182 193 125 18 180 306 165 103 327 295 332 239 241 238 202 190 211 219 205 208 207 230 211 212 230 242 236 215 210 246 235 39 152 217 230 238 207 221 199 212 218 195
177 157 259 229 136 326 313 281 136 199 190 186 260 235 240 231 223 195 217 207 207 213 222 226 223 223 215 246 248 218 233 266 275 153 215 222 239 196 207 249 192 210 204
170 263 182 236 299 281 295 321 270 185 235 187 231 251 257 288 261 247 211 206 209 190 236 197 231 227 219 225 274 271 211 220 196 202 267 223 224 209 194 208 223 201 206
227 208 203 194 210 227 263 261 299 272 240 235 231 286 273 250 256 253 230 210 200 209 220 218 231 244 200 217 245 266 231 167 189 203 228 243 209 223 179 200 204 215 195